Time,TemperatureF,DewpointF,PressureIn,WindDirection,WindDirectionDegrees,WindSpeedMPH,WindSpeedGustMPH,Humidity,HourlyPrecipIn,Conditions,Clouds,dailyrainin,SoftwareType,DateUTC
2013-07-28 00:03:00,71.3,68.0,29.84,East,82,0.0,2.0,89,0.00,,,0.00,weatherlink.com 1.10,2013-07-28 04:03:00,
2013-07-28 00:18:00,71.1,68.0,29.84,East,82,0.0,1.0,90,0.00,,,0.00,weatherlink.com 1.10,2013-07-28 04:18:00,
2013-07-28 00:33:00,70.7,68.0,29.83,East,82,0.0,1.0,90,0.00,,,0.00,weatherlink.com 1.10,2013-07-28 04:33:00,
2013-07-28 00:48:00,70.4,68.0,29.83,ENE,78,0.0,2.0,91,0.00,,,0.00,weatherlink.com 1.10,2013-07-28 04:48:00,
2013-07-28 01:03:00,70.3,68.0,29.82,ESE,109,0.0,1.0,92,0.00,,,0.00,weatherlink.com 1.10,2013-07-28 05:03:00,
2013-07-28 01:18:00,70.2,68.0,29.82,ESE,109,1.0,1.0,92,0.00,,,0.00,weatherlink.com 1.10,2013-07-28 05:18:00,
2013-07-28 01:33:00,70.1,68.0,29.82,East,98,0.0,2.0,92,0.00,,,0.00,weatherlink.com 1.10,2013-07-28 05:33:00,
2013-07-28 01:48:00,70.0,68.0,29.82,SE,130,0.0,2.0,92,0.00,,,0.00,weatherlink.com 1.10,2013-07-28 05:48:00,
2013-07-28 02:03:00,70.0,68.0,29.82,East,90,0.0,2.0,92,0.00,,,0.00,weatherlink.com 1.10,2013-07-28 06:03:00,
2013-07-28 02:18:00,69.9,68.0,29.81,SSE,152,0.0,0.0,93,0.00,,,0.00,weatherlink.com 1.10,2013-07-28 06:18:00,
2013-07-28 02:33:00,69.8,68.0,29.82,SE,126,0.0,1.0,93,0.00,,,0.00,weatherlink.com 1.10,2013-07-28 06:33:00,
2013-07-28 02:48:00,69.7,68.0,29.82,SE,126,0.0,1.0,93,0.00,,,0.00,weatherlink.com 1.10,2013-07-28 06:48:00,
2013-07-28 03:03:00,69.8,68.0,29.81,East,80,0.0,1.0,93,0.00,,,0.00,weatherlink.com 1.10,2013-07-28 07:03:00,
2013-07-28 03:18:00,69.8,68.0,29.80,East,79,0.0,0.0,93,0.00,,,0.00,weatherlink.com 1.10,2013-07-28 07:18:00,
2013-07-28 03:33:00,69.7,68.0,29.80,East,79,0.0,-999.0,93,-99.99,,,0.00,weatherlink.com 1.10,2013-07-28 07:33:00,
2013-07-28 03:48:00,69.5,68.0,29.80,East,79,0.0,1.0,94,0.00,,,0.00,weatherlink.com 1.10,2013-07-28 07:48:00,
2013-07-28 04:03:00,69.3,67.0,29.81,East,79,0.0,0.0,93,0.00,,,0.00,weatherlink.com 1.10,2013-07-28 08:03:00,
2013-07-28 04:18:00,69.3,68.0,29.80,East,80,0.0,1.0,94,0.00,,,0.00,weatherlink.com 1.10,2013-07-28 08:18:00,
2013-07-28 04:33:00,69.3,68.0,29.81,NNE,21,0.0,3.0,94,0.00,,,0.00,weatherlink.com 1.10,2013-07-28 08:33:00,
2013-07-28 04:48:00,69.3,68.0,29.81,East,94,0.0,1.0,94,0.00,,,0.00,weatherlink.com 1.10,2013-07-28 08:48:00,
2013-07-28 05:03:00,69.4,68.0,29.80,East,90,0.0,1.0,94,0.00,,,0.00,weatherlink.com 1.10,2013-07-28 09:03:00,
2013-07-28 05:18:00,69.3,68.0,29.81,ESE,115,0.0,1.0,94,0.00,,,0.00,weatherlink.com 1.10,2013-07-28 09:18:00,
2013-07-28 05:33:00,69.4,68.0,29.81,SSE,152,0.0,1.0,94,0.00,,,0.00,weatherlink.com 1.10,2013-07-28 09:33:00,
2013-07-28 05:48:00,69.3,68.0,29.82,SE,128,0.0,1.0,94,0.00,,,0.00,weatherlink.com 1.10,2013-07-28 09:48:00,
2013-07-28 06:03:00,69.2,68.0,29.82,SE,128,0.0,0.0,94,0.00,,,0.00,weatherlink.com 1.10,2013-07-28 10:03:00,
2013-07-28 06:18:00,69.4,68.0,29.83,ESE,123,0.0,1.0,94,0.00,,,0.00,weatherlink.com 1.10,2013-07-28 10:18:00,
2013-07-28 06:33:00,69.5,68.0,29.83,ENE,71,0.0,2.0,94,0.00,,,0.00,weatherlink.com 1.10,2013-07-28 10:33:00,
2013-07-28 06:48:00,69.5,68.0,29.83,ENE,71,0.0,1.0,94,0.00,,,0.00,weatherlink.com 1.10,2013-07-28 10:48:00,
2013-07-28 07:03:00,69.7,68.0,29.83,NE,42,0.0,3.0,94,0.00,,,0.00,weatherlink.com 1.10,2013-07-28 11:03:00,
2013-07-28 07:18:00,69.9,68.0,29.83,ESE,121,0.0,0.0,94,0.00,,,0.00,weatherlink.com 1.10,2013-07-28 11:18:00,
2013-07-28 07:33:00,70.1,68.0,29.84,ESE,121,0.0,1.0,94,0.01,,,0.01,weatherlink.com 1.10,2013-07-28 11:33:00,
2013-07-28 07:48:00,70.4,69.0,29.85,ESE,121,0.0,0.0,94,0.01,,,0.01,weatherlink.com 1.10,2013-07-28 11:48:00,
2013-07-28 08:03:00,70.7,69.0,29.85,ESE,121,0.0,1.0,94,0.01,,,0.01,weatherlink.com 1.10,2013-07-28 12:03:00,
2013-07-28 08:18:00,71.0,69.0,29.84,ESE,121,0.0,0.0,92,0.01,,,0.01,weatherlink.com 1.10,2013-07-28 12:18:00,
2013-07-28 08:33:00,71.2,69.0,29.84,ENE,60,0.0,1.0,93,0.00,,,0.01,weatherlink.com 1.10,2013-07-28 12:33:00,
2013-07-28 08:48:00,71.9,70.0,29.84,ESE,117,0.0,1.0,92,0.00,,,0.01,weatherlink.com 1.10,2013-07-28 12:48:00,
2013-07-28 09:03:00,73.1,70.0,29.83,ESE,122,0.0,3.0,89,0.00,,,0.01,weatherlink.com 1.10,2013-07-28 13:03:00,
2013-07-28 09:18:00,75.3,71.0,29.83,SE,133,0.0,2.0,85,0.00,,,0.01,weatherlink.com 1.10,2013-07-28 13:18:00,
2013-07-28 09:34:00,76.3,70.0,29.83,NW,313,1.0,4.0,81,0.00,,,0.01,weatherlink.com 1.10,2013-07-28 13:34:00,
2013-07-28 09:49:00,76.1,70.0,29.84,NW,316,0.0,6.0,81,0.00,,,0.01,weatherlink.com 1.10,2013-07-28 13:49:00,
2013-07-28 10:04:00,76.0,70.0,29.83,WNW,289,2.0,4.0,81,0.00,,,0.01,weatherlink.com 1.10,2013-07-28 14:04:00,
2013-07-28 10:19:00,75.8,69.0,29.83,West,280,2.0,7.0,80,0.00,,,0.01,weatherlink.com 1.10,2013-07-28 14:19:00,
2013-07-28 10:34:00,75.2,69.0,29.84,West,278,1.0,4.0,82,0.00,,,0.01,weatherlink.com 1.10,2013-07-28 14:34:00,
2013-07-28 10:49:00,75.1,69.0,29.84,WNW,297,2.0,4.0,81,0.00,,,0.01,weatherlink.com 1.10,2013-07-28 14:49:00,
2013-07-28 11:04:00,75.4,69.0,29.84,WNW,297,2.0,3.0,80,0.00,,,0.01,weatherlink.com 1.10,2013-07-28 15:04:00,
2013-07-28 11:19:00,75.9,69.0,29.84,WNW,289,0.0,3.0,78,0.00,,,0.01,weatherlink.com 1.10,2013-07-28 15:19:00,
2013-07-28 11:34:00,76.4,68.0,29.84,WNW,289,0.0,2.0,76,0.00,,,0.01,weatherlink.com 1.10,2013-07-28 15:34:00,
2013-07-28 11:49:00,77.2,68.0,29.84,WNW,282,1.0,3.0,73,0.00,,,0.01,weatherlink.com 1.10,2013-07-28 15:49:00,
2013-07-28 12:04:00,78.3,68.0,29.85,North,350,0.0,3.0,70,0.00,,,0.01,weatherlink.com 1.10,2013-07-28 16:04:00,
2013-07-28 12:19:00,79.2,68.0,29.86,WNW,302,0.0,4.0,68,0.00,,,0.01,weatherlink.com 1.10,2013-07-28 16:19:00,
2013-07-28 12:34:00,79.8,68.0,29.86,NW,319,0.0,2.0,67,0.00,,,0.01,weatherlink.com 1.10,2013-07-28 16:34:00,
2013-07-28 12:49:00,78.7,67.0,29.86,NE,44,0.0,2.0,67,0.00,,,0.01,weatherlink.com 1.10,2013-07-28 16:49:00,
2013-07-28 13:04:00,78.1,68.0,29.86,NNW,329,0.0,2.0,70,0.00,,,0.01,weatherlink.com 1.10,2013-07-28 17:04:00,
2013-07-28 13:19:00,77.1,67.0,29.86,East,98,0.0,3.0,72,0.00,,,0.01,weatherlink.com 1.10,2013-07-28 17:19:00,
2013-07-28 13:34:00,77.0,69.0,29.85,East,96,1.0,3.0,76,0.00,,,0.01,weatherlink.com 1.10,2013-07-28 17:34:00,
2013-07-28 13:49:00,77.9,69.0,29.85,NW,322,0.0,5.0,73,0.00,,,0.01,weatherlink.com 1.10,2013-07-28 17:49:00,
2013-07-28 14:04:00,78.8,68.0,29.85,ENE,78,0.0,3.0,69,0.00,,,0.01,weatherlink.com 1.10,2013-07-28 18:04:00,
2013-07-28 14:19:00,79.8,68.0,29.85,SE,144,0.0,3.0,67,0.00,,,0.01,weatherlink.com 1.10,2013-07-28 18:19:00,
2013-07-28 14:34:00,81.1,69.0,29.84,West,275,1.0,2.0,67,0.00,,,0.01,weatherlink.com 1.10,2013-07-28 18:34:00,
2013-07-28 14:49:00,81.0,69.0,29.84,ESE,110,3.0,7.0,66,0.00,,,0.01,weatherlink.com 1.10,2013-07-28 18:49:00,
2013-07-28 15:04:00,81.1,68.0,29.83,SSW,205,0.0,4.0,64,0.00,,,0.01,weatherlink.com 1.10,2013-07-28 19:04:00,
2013-07-28 15:19:00,81.4,69.0,29.82,ESE,109,1.0,6.0,65,0.00,,,0.01,weatherlink.com 1.10,2013-07-28 19:19:00,
2013-07-28 15:34:00,80.7,67.0,29.82,ENE,76,2.0,5.0,63,0.00,,,0.01,weatherlink.com 1.10,2013-07-28 19:34:00,
2013-07-28 15:49:00,81.1,69.0,29.82,SE,142,0.0,5.0,66,0.00,,,0.01,weatherlink.com 1.10,2013-07-28 19:49:00,
2013-07-28 16:04:00,81.4,68.0,29.82,East,83,3.0,5.0,63,0.00,,,0.01,weatherlink.com 1.10,2013-07-28 20:04:00,
2013-07-28 16:19:00,81.5,69.0,29.82,ESE,107,0.0,3.0,65,0.00,,,0.01,weatherlink.com 1.10,2013-07-28 20:19:00,
2013-07-28 16:34:00,82.0,68.0,29.82,SSW,203,0.0,4.0,63,0.00,,,0.01,weatherlink.com 1.10,2013-07-28 20:34:00,
2013-07-28 16:49:00,81.6,68.0,29.82,ESE,109,7.0,7.0,63,0.00,,,0.01,weatherlink.com 1.10,2013-07-28 20:49:00,
2013-07-28 17:04:00,81.2,67.0,29.82,ESE,113,7.0,9.0,63,0.00,,,0.01,weatherlink.com 1.10,2013-07-28 21:04:00,
2013-07-28 17:19:00,81.0,67.0,29.82,East,94,0.0,4.0,63,0.00,,,0.01,weatherlink.com 1.10,2013-07-28 21:19:00,
2013-07-28 17:34:00,80.6,67.0,29.82,SE,125,0.0,4.0,63,0.00,,,0.01,weatherlink.com 1.10,2013-07-28 21:34:00,
2013-07-28 17:49:00,81.0,68.0,29.81,SE,131,1.0,3.0,64,0.00,,,0.01,weatherlink.com 1.10,2013-07-28 21:49:00,
2013-07-28 18:05:00,81.7,66.0,29.82,East,98,3.0,7.0,60,0.00,,,0.01,weatherlink.com 1.10,2013-07-28 22:05:00,
2013-07-28 18:19:00,81.4,66.0,29.82,SW,230,1.0,3.0,60,0.00,,,0.01,weatherlink.com 1.10,2013-07-28 22:19:00,
2013-07-28 18:34:00,80.9,66.0,29.82,South,187,0.0,3.0,61,0.00,,,0.01,weatherlink.com 1.10,2013-07-28 22:34:00,
2013-07-28 18:49:00,80.0,67.0,29.82,ESE,111,0.0,2.0,64,0.00,,,0.01,weatherlink.com 1.10,2013-07-28 22:49:00,
2013-07-28 19:04:00,79.5,67.0,29.82,ESE,111,0.0,1.0,66,0.00,,,0.01,weatherlink.com 1.10,2013-07-28 23:04:00,
2013-07-28 19:19:00,79.1,68.0,29.82,West,264,2.0,3.0,69,0.00,,,0.01,weatherlink.com 1.10,2013-07-28 23:19:00,
2013-07-28 19:34:00,77.8,67.0,29.82,West,281,2.0,3.0,69,0.00,,,0.01,weatherlink.com 1.10,2013-07-28 23:34:00,
2013-07-28 19:49:00,77.1,66.0,29.82,WNW,283,0.0,2.0,69,0.00,,,0.01,weatherlink.com 1.10,2013-07-28 23:49:00,
2013-07-28 20:04:00,76.7,67.0,29.83,WNW,283,0.0,0.0,71,0.00,,,0.01,weatherlink.com 1.10,2013-07-29 00:04:00,
2013-07-28 20:19:00,76.0,68.0,29.84,WNW,284,2.0,4.0,76,0.00,,,0.01,weatherlink.com 1.10,2013-07-29 00:19:00,
2013-07-28 20:34:00,69.8,64.0,29.89,North,10,1.0,21.0,82,0.53,,,0.54,weatherlink.com 1.10,2013-07-29 00:34:00,
2013-07-28 20:49:00,65.9,63.0,29.87,ENE,58,0.0,3.0,90,0.66,,,0.67,weatherlink.com 1.10,2013-07-29 00:49:00,
2013-07-28 21:05:00,65.4,63.0,29.87,ENE,58,0.0,0.0,93,0.66,,,0.67,weatherlink.com 1.10,2013-07-29 01:05:00,
2013-07-28 21:35:00,65.2,64.0,29.88,ENE,67,0.0,0.0,94,0.09,,,0.67,weatherlink.com 1.10,2013-07-29 01:35:00,
2013-07-28 21:51:00,65.3,64.0,29.89,ENE,67,0.0,0.0,95,0.00,,,0.67,weatherlink.com 1.10,2013-07-29 01:51:00,
2013-07-28 22:05:00,65.1,64.0,29.90,North,355,1.0,2.0,95,0.00,,,0.67,weatherlink.com 1.10,2013-07-29 02:05:00,
2013-07-28 22:20:00,65.0,64.0,29.91,North,355,0.0,2.0,95,0.00,,,0.67,weatherlink.com 1.10,2013-07-29 02:20:00,
2013-07-28 22:50:00,64.4,63.0,29.91,NNW,327,0.0,1.0,96,0.00,,,0.67,weatherlink.com 1.10,2013-07-29 02:50:00,
2013-07-28 23:05:00,64.2,63.0,29.91,NNW,327,0.0,1.0,96,0.00,,,0.67,weatherlink.com 1.10,2013-07-29 03:05:00,
2013-07-28 23:20:00,63.9,63.0,29.91,NNW,327,0.0,1.0,96,0.00,,,0.67,weatherlink.com 1.10,2013-07-29 03:20:00,
2013-07-28 23:35:00,63.5,62.0,29.92,NNW,327,0.0,0.0,96,0.00,,,0.67,weatherlink.com 1.10,2013-07-29 03:35:00,
2013-07-28 23:50:00,63.4,62.0,29.92,NNW,327,0.0,0.0,96,0.00,,,0.67,weatherlink.com 1.10,2013-07-29 03:50:00,